Location: Newark
(35.7127°N, 139.7618°E)
Time: 03:39:49
(UTC+00:00)

N. Korean satellite - Pass Details

Date: 10 August 2020
Orbit: 455 x 503 km, 97.2° (Epoch: 22 September)

Event Time Altitude Azimuth Distance (km) Brightness Sun altitude
Rises 19:11:24 0° 37° (NE) 2,527 11.5 -9.3°
Reaches altitude 10° 19:14:39 10° 70° (ENE) 1,656 10.9 -8.7°
Maximum altitude 19:16:01 12° 93° (E) 1,546 10.2 -8.4°
Drops below altitude 10° 19:17:24 10° 116° (ESE) 1,662 9.8 -8.2°
Sets 19:20:40 0° 149° (SSE) 2,548 10.3 -7.6°
